Location: Whipple Observatory
(31.6750°N, 110.9510°W)
Time: 11:31:27
(UTC-07:00)

ISS - Pass Details

Date: 18 April 2026
Orbit: 414 x 424 km, 51.6° (Epoch: 12 May)

Event Time Altitude Azimuth Distance (km) Brightness Sun altitude
Exits shadow 04:10:39 73° 99° (E) 438 -3.7 -20.9°
Drops below altitude 10° 04:13:49 10° 48° (NE) 1,494 0.1 -20.3°
Sets 04:15:56 0° 47° (NE) 2,363 1.5 -19.9°
